Home > Weather > Trois-Rivieres > Past weeks

Flag for Canada Weather for the Past 2 Weeks in Trois-Rivieres, Quebec, Canada

Now
-3 °F

Frigid.


Feels Like: -14 °F
Forecast: -6 / 16 °F
Wind: 5 mph from West

Location: Trois Rivieres

Current Time: Feb 12, 2016 at 5:44:34 AM

Latest Report: Feb 12, 2016 at 5:00 AM


Visibility: N/A

Pressure: 30.09 "Hg

Humidity: 67%

Dew point: -11 °F

Location of Trois-RivieresLocation

Historic Weather in Trois-Rivieres — Graph

°F

Trois-Rivieres Temperature Yesterday

Maximum temperature yesterday: 19 °F (at 12:00 AM)
Minimum temperature yesterday: 1 °F (at 11:00 PM)
Average temperature yesterday: 8 °F

High & Low Weather Summary for the Past Weeks

 TemperatureHumidityPressure
High42 °F (Feb 1, 10:00 AM)100% (Jan 28, 4:00 PM)30.44 "Hg (Jan 28, 4:00 PM)
Low-3 °F (Feb 12, 4:00 AM)38% (Feb 7, 12:00 PM)29.33 "Hg (Feb 1, 7:00 AM)
Average23 °F81%29.89 "Hg
* Reported Jan 28 4:00 AM — Feb 12 4:00 AM, Trois-Rivieres, Weather by CustomWeather, © 2016

Note: Actual official high and low records may vary slightly from our data, if they occured in-between our weather recording intervals... More about our weather records

Advertising

Trois-Rivieres Weather History for the Previous 24 Hours

 ConditionsComfort  
Time TempWeatherWind HumidityBarometerVisibility
4:00 AM
Fri, Feb 12
-3 °FFrigid.5 mph68%30.09 "HgN/A
3:00 AM-3 °FFrigid.5 mph68%30.09 "HgN/A
2:00 AM-1 °FFrigid.5 mph66%30.09 "HgN/A
1:00 AM0 °FFrigid.9 mph64%30.08 "HgN/A
12:00 AM1 °FFrigid.10 mph69%30.06 "HgN/A
11:00 PM
Thu, Feb 11
1 °FFrigid.6 mph73%30.04 "HgN/A
10:00 PM2 °FFrigid.6 mph80%30.02 "HgN/A
9:00 PM2 °FFrigid.6 mph71%30.00 "HgN/A
8:00 PM2 °FFrigid.6 mph67%29.98 "HgN/A
7:00 PM3 °FFrigid.13 mph66%29.95 "HgN/A
6:00 PM4 °FFrigid.10 mph75%29.90 "HgN/A
5:00 PM5 °FFrigid.9 mph77%29.88 "HgN/A
4:00 PM6 °FFrigid.9 mph78%29.84 "HgN/A
3:00 PM7 °FFrigid.8 mph76%29.81 "HgN/A
2:00 PM8 °FFrigid.9 mph74%29.79 "HgN/A
1:00 PM8 °FFrigid.7 mph78%29.78 "HgN/A
12:00 PM8 °FFrigid.8 mph74%29.77 "HgN/A
11:00 AM7 °FFrigid.8 mph76%29.77 "HgN/A
10:00 AM8 °FFrigid.10 mph71%29.75 "HgN/A
9:00 AM6 °FFrigid.10 mph79%29.73 "HgN/A
8:00 AM7 °FFrigid.9 mph79%29.72 "HgN/A
7:00 AM9 °FFrigid.8 mph82%29.71 "HgN/A
6:00 AM10 °FCold.9 mph90%29.69 "HgN/A
5:00 AM12 °FCold.8 mph82%29.68 "HgN/A
Weather by CustomWeather, © 2016

See weather overviewHow to use our weather pages